| time (UTC) | temp F | wind direction | speed MPH | gust MPH | rain 1hr in | rain 24hr in | rain mn in | humidity % | barometer mb |
| 20260508043904 | 48 | 355 | 0.0 | 0.0 | 0.00 | 0.00 | 0.00 | 89 | 1017.4 |
| 20260508043404 | 48 | 355 | 0.0 | 1.0 | 0.00 | 0.00 | 0.00 | 88 | 1017.3 |
| 20260508042904 | 48 | 355 | 0.0 | 0.0 | 0.00 | 0.00 | 0.00 | 88 | 1017.2 |
| 20260508042404 | 48 | 355 | 0.0 | 0.0 | 0.00 | 0.00 | 0.00 | 88 | 1017.2 |
| 20260508041904 | 48 | 355 | 0.0 | 0.0 | 0.00 | 0.00 | 0.00 | 87 | 1017.2 |
| 20260508041404 | 48 | 355 | 0.0 | 0.0 | 0.00 | 0.00 | 0.00 | 87 | 1017.1 |
| 20260508040904 | 49 | 355 | 0.0 | 0.0 | 0.00 | 0.00 | 0.00 | 87 | 1017.2 |
| 20260508040404 | 49 | 355 | 0.0 | 0.0 | 0.00 | 0.00 | 0.00 | 87 | 1017.1 |
| 20260508035904 | 49 | 355 | 0.0 | 1.0 | 0.00 | 0.00 | 0.00 | 86 | 1017.2 |
| 20260508035404 | 49 | 355 | 0.0 | 1.0 | 0.00 | 0.00 | 0.00 | 86 | 1017.4 |
| 20260508034904 | 49 | 355 | 0.0 | 0.0 | 0.00 | 0.00 | 0.00 | 86 | 1017.4 |
| 20260508034404 | 49 | 355 | 0.0 | 0.0 | 0.00 | 0.00 | 0.00 | 85 | 1017.5 |
| 20260508033904 | 49 | 355 | 0.0 | 1.0 | 0.00 | 0.00 | 0.00 | 85 | 1017.6 |
| 20260508032404 | 50 | 355 | 1.0 | 2.0 | 0.00 | 0.00 | 0.00 | 84 | 1017.6 |
| 20260508031903 | 50 | 355 | 0.0 | 0.0 | 0.00 | 0.00 | 0.00 | 83 | 1017.6 |
| 20260508031404 | 50 | 355 | 0.0 | 0.0 | 0.00 | 0.00 | 0.00 | 83 | 1017.6 |
| 20260508030903 | 51 | 355 | 0.0 | 0.0 | 0.00 | 0.00 | 0.00 | 82 | 1017.6 |
| 20260508030403 | 51 | 355 | 0.0 | 0.0 | 0.00 | 0.00 | 0.00 | 82 | 1017.6 |
| 20260508025904 | 51 | 355 | 0.0 | 0.0 | 0.00 | 0.00 | 0.00 | 82 | 1017.4 |
| 20260508025404 | 51 | 355 | 0.0 | 0.0 | 0.00 | 0.00 | 0.00 | 81 | 1017.5 |
| 20260508024403 | 51 | 355 | 0.0 | 0.0 | 0.00 | 0.00 | 0.00 | 80 | 1017.4 |
| 20260508023904 | 52 | 355 | 0.0 | 0.0 | 0.00 | 0.00 | 0.00 | 80 | 1017.3 |
| 20260508023404 | 52 | 355 | 0.0 | 0.0 | 0.00 | 0.00 | 0.00 | 79 | 1017.3 |
| 20260508022904 | 52 | 355 | 0.0 | 0.0 | 0.00 | 0.00 | 0.00 | 79 | 1017.2 |
| 20260508022404 | 52 | 355 | 0.0 | 1.0 | 0.00 | 0.00 | 0.00 | 78 | 1017.1 |
| 20260508021904 | 53 | 355 | 0.0 | 0.0 | 0.00 | 0.00 | 0.00 | 76 | 1017.0 |
| 20260508021403 | 53 | 355 | 0.0 | 0.0 | 0.00 | 0.00 | 0.00 | 75 | 1016.9 |
| 20260508020903 | 54 | 355 | 0.0 | 1.0 | 0.00 | 0.00 | 0.00 | 74 | 1016.8 |
| 20260508020403 | 54 | 355 | 0.0 | 1.0 | 0.00 | 0.00 | 0.00 | 74 | 1016.6 |
| 20260508015904 | 54 | 355 | 1.0 | 1.0 | 0.00 | 0.00 | 0.00 | 73 | 1016.6 |
| 20260508015403 | 54 | 355 | 1.0 | 1.0 | 0.00 | 0.00 | 0.00 | 73 | 1016.5 |
| 20260508014903 | 55 | 355 | 0.0 | 0.0 | 0.00 | 0.00 | 0.00 | 73 | 1016.7 |
| 20260508014403 | 55 | 355 | 0.0 | 0.0 | 0.00 | 0.00 | 0.00 | 73 | 1016.9 |
| 20260508013904 | 55 | 355 | 0.0 | 0.0 | 0.00 | 0.00 | 0.00 | 73 | 1016.7 |
| 20260508013404 | 55 | 355 | 0.0 | 0.0 | 0.00 | 0.00 | 0.00 | 72 | 1016.6 |
| 20260508012904 | 55 | 355 | 0.0 | 0.0 | 0.00 | 0.00 | 0.00 | 71 | 1016.5 |
| 20260508012404 | 56 | 355 | 0.0 | 0.0 | 0.00 | 0.00 | 0.00 | 69 | 1016.4 |
| 20260508010904 | 57 | 355 | 0.0 | 0.0 | 0.00 | 0.01 | 0.00 | 65 | 1016.5 |
| 20260508010404 | 57 | 355 | 0.0 | 0.0 | 0.00 | 0.01 | 0.00 | 64 | 1016.5 |
| 20260508005904 | 58 | 355 | 0.0 | 0.0 | 0.00 | 0.01 | 0.00 | 63 | 1016.5 |
| 20260508005403 | 58 | 355 | 0.0 | 1.0 | 0.00 | 0.01 | 0.00 | 62 | 1016.4 |
| 20260508004904 | 59 | 355 | 0.0 | 0.0 | 0.00 | 0.01 | 0.00 | 60 | 1016.3 |
| 20260508003904 | 60 | 355 | 0.0 | 1.0 | 0.00 | 0.01 | 0.00 | 57 | 1016.0 |
| 20260508003404 | 61 | 355 | 0.0 | 2.0 | 0.00 | 0.01 | 0.00 | 56 | 1016.0 |
| 20260508002904 | 62 | 355 | 1.0 | 2.0 | 0.00 | 0.01 | 0.00 | 54 | 1015.9 |
| 20260508002404 | 62 | 355 | 1.0 | 2.0 | 0.00 | 0.01 | 0.00 | 52 | 1015.8 |
| 20260508001904 | 62 | 355 | 1.0 | 3.0 | 0.00 | 0.01 | 0.00 | 51 | 1015.7 |
| 20260508001404 | 62 | 355 | 1.0 | 2.0 | 0.00 | 0.01 | 0.00 | 52 | 1015.7 |
| 20260508000405 | 63 | 355 | 1.0 | 3.0 | 0.00 | 0.02 | 0.00 | 49 | 1015.6 |
| 20260507235904 | 63 | 355 | 2.0 | 3.0 | 0.00 | 0.02 | 0.00 | 49 | 1015.6 |
| 20260507235404 | 63 | 355 | 3.0 | 5.0 | 0.00 | 0.02 | 0.00 | 48 | 1015.6 |
| 20260507233904 | 64 | 312 | 3.0 | 7.0 | 0.00 | 0.02 | 0.00 | 49 | 1015.7 |
| 20260507233403 | 64 | 317 | 3.0 | 7.0 | 0.00 | 0.02 | 0.00 | 48 | 1015.7 |
| 20260507232904 | 64 | 336 | 5.0 | 8.0 | 0.00 | 0.02 | 0.00 | 47 | 1015.7 |
| 20260507232403 | 65 | 301 | 3.0 | 6.0 | 0.00 | 0.02 | 0.00 | 47 | 1015.7 |
| 20260507231404 | 65 | 286 | 1.0 | 5.0 | 0.00 | 0.02 | 0.00 | 46 | 1015.6 |
| 20260507230904 | 65 | 318 | 4.0 | 6.0 | 0.00 | 0.02 | 0.00 | 46 | 1015.5 |
| 20260507230404 | 65 | 0 | 3.0 | 5.0 | 0.00 | 0.02 | 0.00 | 47 | 1015.5 |
| 20260507225904 | 65 | 309 | 1.0 | 2.0 | 0.00 | 0.02 | 0.00 | 47 | 1015.7 |
| 20260507225405 | 66 | 309 | 1.0 | 5.0 | 0.00 | 0.02 | 0.00 | 45 | 1015.7 |
| 20260507224904 | 66 | 309 | 2.0 | 7.0 | 0.00 | 0.02 | 0.00 | 46 | 1015.8 |
| 20260507224404 | 66 | 299 | 3.0 | 7.0 | 0.00 | 0.02 | 0.00 | 45 | 1015.7 |
| 20260507223904 | 66 | 275 | 4.0 | 8.0 | 0.00 | 0.02 | 0.00 | 45 | 1015.7 |
| 20260507223404 | 66 | 312 | 5.0 | 8.0 | 0.00 | 0.02 | 0.00 | 45 | 1015.7 |
| 20260507222904 | 66 | 355 | 2.0 | 7.0 | 0.00 | 0.02 | 0.00 | 46 | 1015.8 |
| 20260507222403 | 67 | 318 | 4.0 | 9.0 | 0.00 | 0.02 | 0.00 | 46 | 1015.8 |
| 20260507221903 | 67 | 353 | 5.0 | 12.0 | 0.00 | 0.02 | 0.00 | 46 | 1015.8 |
| 20260507221404 | 66 | 285 | 7.0 | 12.0 | 0.00 | 0.02 | 0.00 | 45 | 1015.8 |
| 20260507220904 | 67 | 299 | 3.0 | 8.0 | 0.00 | 0.02 | 0.00 | 44 | 1015.8 |
| 20260507220403 | 66 | 340 | 1.0 | 5.0 | 0.00 | 0.02 | 0.00 | 46 | 1015.7 |
| 20260507215903 | 67 | 285 | 3.0 | 6.0 | 0.00 | 0.02 | 0.00 | 45 | 1015.8 |
| 20260507215404 | 66 | 286 | 3.0 | 9.0 | 0.00 | 0.02 | 0.00 | 47 | 1015.8 |
| 20260507214903 | 66 | 309 | 2.0 | 9.0 | 0.00 | 0.02 | 0.00 | 45 | 1015.8 |
| 20260507214404 | 67 | 300 | 3.0 | 8.0 | 0.00 | 0.03 | 0.00 | 46 | 1015.7 |
| 20260507213904 | 67 | 318 | 6.0 | 10.0 | 0.00 | 0.03 | 0.00 | 46 | 1015.7 |
| 20260507212905 | 67 | 356 | 6.0 | 10.0 | 0.00 | 0.03 | 0.00 | 46 | 1015.8 |
| 20260507212403 | 67 | 47 | 2.0 | 5.0 | 0.00 | 0.03 | 0.00 | 46 | 1015.8 |
| 20260507211404 | 67 | 290 | 4.0 | 8.0 | 0.00 | 0.04 | 0.00 | 46 | 1015.9 |
| 20260507210904 | 66 | 329 | 4.0 | 12.0 | 0.00 | 0.04 | 0.00 | 45 | 1016.0 |
| 20260507205904 | 67 | 27 | 3.0 | 5.0 | 0.00 | 0.04 | 0.00 | 46 | 1016.1 |
| 20260507205404 | 67 | 265 | 5.0 | 9.0 | 0.00 | 0.05 | 0.00 | 47 | 1016.0 |
| 20260507204903 | 68 | 328 | 4.0 | 9.0 | 0.00 | 0.06 | 0.00 | 49 | 1016.1 |
| 20260507204403 | 67 | 314 | 5.0 | 10.0 | 0.00 | 0.07 | 0.00 | 44 | 1016.1 |
| 20260507203904 | 67 | 248 | 2.0 | 8.0 | 0.00 | 0.07 | 0.00 | 46 | 1016.1 |
| 20260507203404 | 66 | 300 | 2.0 | 6.0 | 0.00 | 0.07 | 0.00 | 47 | 1016.1 |
| 20260507202904 | 66 | 296 | 5.0 | 8.0 | 0.00 | 0.07 | 0.00 | 46 | 1016.2 |
| 20260507202404 | 67 | 334 | 2.0 | 6.0 | 0.00 | 0.07 | 0.00 | 46 | 1016.2 |
| 20260507201904 | 66 | 338 | 3.0 | 8.0 | 0.00 | 0.07 | 0.00 | 45 | 1016.3 |
| 20260507201405 | 67 | 306 | 6.0 | 10.0 | 0.00 | 0.07 | 0.00 | 48 | 1016.4 |
| 20260507200904 | 67 | 292 | 5.0 | 12.0 | 0.00 | 0.07 | 0.00 | 48 | 1016.5 |
| 20260507200405 | 66 | 310 | 4.0 | 10.0 | 0.00 | 0.07 | 0.00 | 46 | 1016.4 |
| 20260507195905 | 66 | 326 | 4.0 | 10.0 | 0.00 | 0.07 | 0.00 | 47 | 1016.3 |
| 20260507195405 | 66 | 273 | 5.0 | 12.0 | 0.00 | 0.07 | 0.00 | 47 | 1016.3 |
| 20260507194905 | 66 | 301 | 5.0 | 10.0 | 0.00 | 0.07 | 0.00 | 48 | 1016.4 |
| 20260507194404 | 67 | 280 | 6.0 | 12.0 | 0.00 | 0.07 | 0.00 | 46 | 1016.6 |
| 20260507193905 | 66 | 315 | 5.0 | 13.0 | 0.00 | 0.07 | 0.00 | 49 | 1016.6 |
| 20260507193405 | 66 | 329 | 6.0 | 12.0 | 0.00 | 0.07 | 0.00 | 47 | 1016.6 |
| 20260507192905 | 66 | 322 | 3.0 | 12.0 | 0.00 | 0.07 | 0.00 | 47 | 1016.7 |
| 20260507192404 | 66 | 358 | 4.0 | 12.0 | 0.00 | 0.07 | 0.00 | 49 | 1016.7 |
| 20260507191905 | 66 | 352 | 6.0 | 13.0 | 0.00 | 0.07 | 0.00 | 49 | 1016.6 |
| 20260507191405 | 65 | 272 | 2.0 | 10.0 | 0.00 | 0.07 | 0.00 | 48 | 1016.6 |
| 20260507190905 | 65 | 320 | 3.0 | 8.0 | 0.00 | 0.07 | 0.00 | 48 | 1016.7 |
| 20260507185904 | 66 | 15 | 2.0 | 8.0 | 0.00 | 0.07 | 0.00 | 52 | 1016.7 |
| 20260507185405 | 66 | 325 | 5.0 | 10.0 | 0.00 | 0.07 | 0.00 | 49 | 1016.7 |
| 20260507184905 | 65 | 289 | 1.0 | 3.0 | 0.00 | 0.07 | 0.00 | 49 | 1016.7 |
| 20260507184405 | 64 | 299 | 1.0 | 5.0 | 0.00 | 0.07 | 0.00 | 50 | 1016.9 |
| 20260507183405 | 64 | 0 | 7.0 | 17.0 | 0.00 | 0.07 | 0.00 | 49 | 1017.1 |
| 20260507182905 | 65 | 11 | 4.0 | 12.0 | 0.00 | 0.07 | 0.00 | 47 | 1017.0 |
| 20260507182404 | 65 | 304 | 6.0 | 12.0 | 0.00 | 0.07 | 0.00 | 47 | 1017.0 |
| 20260507181905 | 65 | 339 | 3.0 | 7.0 | 0.00 | 0.07 | 0.00 | 46 | 1017.1 |
| 20260507181404 | 65 | 299 | 5.0 | 9.0 | 0.00 | 0.07 | 0.00 | 49 | 1017.1 |
| 20260507180904 | 64 | 284 | 6.0 | 12.0 | 0.00 | 0.07 | 0.00 | 49 | 1017.2 |
| 20260507180405 | 64 | 322 | 5.0 | 12.0 | 0.00 | 0.07 | 0.00 | 49 | 1017.2 |
| 20260507175905 | 64 | 12 | 4.0 | 9.0 | 0.00 | 0.07 | 0.00 | 51 | 1017.2 |
| 20260507175405 | 65 | 350 | 7.0 | 12.0 | 0.00 | 0.07 | 0.00 | 50 | 1017.2 |
| 20260507174905 | 64 | 39 | 2.0 | 9.0 | 0.00 | 0.07 | 0.00 | 52 | 1017.3 |
| 20260507174406 | 64 | 317 | 4.0 | 9.0 | 0.00 | 0.07 | 0.00 | 52 | 1017.4 |
| 20260507173904 | 63 | 306 | 6.0 | 12.0 | 0.00 | 0.07 | 0.00 | 53 | 1017.5 |
| 20260507173404 | 63 | 339 | 5.0 | 8.0 | 0.00 | 0.07 | 0.00 | 50 | 1017.6 |
| 20260507172905 | 64 | 7 | 5.0 | 10.0 | 0.00 | 0.07 | 0.00 | 52 | 1017.7 |
| 20260507172405 | 63 | 26 | 6.0 | 10.0 | 0.00 | 0.07 | 0.00 | 52 | 1017.7 |
| 20260507171905 | 63 | 15 | 4.0 | 9.0 | 0.00 | 0.07 | 0.00 | 52 | 1017.8 |
| 20260507171404 | 63 | 313 | 3.0 | 8.0 | 0.00 | 0.07 | 0.00 | 55 | 1017.8 |
| 20260507170404 | 63 | 36 | 7.0 | 13.0 | 0.00 | 0.07 | 0.00 | 53 | 1017.9 |
| 20260507165904 | 63 | 0 | 4.0 | 12.0 | 0.00 | 0.07 | 0.00 | 54 | 1018.0 |
| 20260507165405 | 63 | 0 | 6.0 | 12.0 | 0.00 | 0.07 | 0.00 | 53 | 1018.1 |
| 20260507164905 | 63 | 3 | 6.0 | 12.0 | 0.00 | 0.07 | 0.00 | 54 | 1018.0 |
| 20260507164405 | 63 | 344 | 7.0 | 12.0 | 0.00 | 0.07 | 0.00 | 53 | 1018.2 |
| 20260507163905 | 62 | 328 | 5.0 | 12.0 | 0.00 | 0.07 | 0.00 | 54 | 1018.2 |
| 20260507163405 | 62 | 26 | 7.0 | 13.0 | 0.00 | 0.07 | 0.00 | 52 | 1018.3 |
| 20260507162905 | 62 | 12 | 3.0 | 8.0 | 0.00 | 0.07 | 0.00 | 55 | 1018.2 |
| 20260507162404 | 62 | 14 | 5.0 | 12.0 | 0.00 | 0.07 | 0.00 | 56 | 1018.3 |
| 20260507161905 | 62 | 10 | 3.0 | 12.0 | 0.00 | 0.07 | 0.00 | 56 | 1018.2 |
| 20260507161405 | 61 | 49 | 6.0 | 10.0 | 0.00 | 0.07 | 0.00 | 57 | 1018.3 |
| 20260507160404 | 62 | 95 | 5.0 | 9.0 | 0.00 | 0.07 | 0.00 | 58 | 1018.4 |
| 20260507155405 | 61 | 0 | 5.0 | 9.0 | 0.00 | 0.07 | 0.00 | 57 | 1018.5 |
| 20260507154905 | 61 | 35 | 5.0 | 9.0 | 0.00 | 0.07 | 0.00 | 59 | 1018.4 |
| 20260507154404 | 60 | 342 | 2.0 | 7.0 | 0.00 | 0.07 | 0.00 | 61 | 1018.5 |
| 20260507153405 | 61 | 44 | 4.0 | 12.0 | 0.00 | 0.07 | 0.00 | 61 | 1018.5 |
| 20260507152905 | 60 | 39 | 3.0 | 12.0 | 0.00 | 0.07 | 0.00 | 64 | 1018.6 |
| 20260507152405 | 60 | 19 | 2.0 | 10.0 | 0.00 | 0.07 | 0.00 | 63 | 1018.5 |
| 20260507151904 | 61 | 348 | 4.0 | 9.0 | 0.00 | 0.07 | 0.00 | 65 | 1018.5 |
| 20260507151405 | 60 | 338 | 2.0 | 9.0 | 0.00 | 0.07 | 0.00 | 68 | 1018.4 |
| 20260507150905 | 59 | 18 | 4.0 | 7.0 | 0.00 | 0.07 | 0.00 | 68 | 1018.3 |
| 20260507145905 | 59 | 82 | 3.0 | 7.0 | 0.00 | 0.07 | 0.00 | 69 | 1018.2 |
| 20260507145405 | 58 | 333 | 2.0 | 6.0 | 0.00 | 0.07 | 0.00 | 71 | 1018.3 |
| 20260507143905 | 58 | 75 | 3.0 | 7.0 | 0.00 | 0.07 | 0.00 | 72 | 1018.4 |
| 20260507143404 | 57 | 84 | 5.0 | 9.0 | 0.00 | 0.07 | 0.00 | 71 | 1018.3 |
| 20260507142904 | 57 | 67 | 4.0 | 7.0 | 0.00 | 0.07 | 0.00 | 73 | 1018.5 |
| 20260507142405 | 57 | 63 | 6.0 | 12.0 | 0.00 | 0.07 | 0.00 | 74 | 1018.4 |
| 20260507141905 | 56 | 66 | 6.0 | 12.0 | 0.00 | 0.07 | 0.00 | 74 | 1018.4 |
| 20260507141405 | 56 | 93 | 3.0 | 9.0 | 0.00 | 0.07 | 0.00 | 76 | 1018.2 |
| 20260507140905 | 56 | 87 | 3.0 | 8.0 | 0.00 | 0.07 | 0.00 | 75 | 1018.2 |
| 20260507135905 | 55 | 28 | 7.0 | 12.0 | 0.00 | 0.07 | 0.00 | 76 | 1018.2 |
| 20260507135405 | 55 | 36 | 5.0 | 9.0 | 0.00 | 0.07 | 0.00 | 76 | 1018.3 |
| 20260507134905 | 55 | 52 | 5.0 | 8.0 | 0.00 | 0.07 | 0.00 | 76 | 1018.4 |
| 20260507134404 | 55 | 55 | 5.0 | 7.0 | 0.00 | 0.07 | 0.00 | 77 | 1018.3 |
| 20260507133904 | 55 | 77 | 5.0 | 9.0 | 0.00 | 0.07 | 0.00 | 78 | 1018.2 |
| 20260507133405 | 55 | 74 | 3.0 | 6.0 | 0.00 | 0.07 | 0.00 | 80 | 1018.2 |
| 20260507132405 | 54 | 28 | 2.0 | 5.0 | 0.00 | 0.07 | 0.00 | 81 | 1018.2 |
| 20260507131906 | 54 | 57 | 2.0 | 5.0 | 0.00 | 0.07 | 0.00 | 81 | 1018.3 |
| 20260507131404 | 53 | 57 | 4.0 | 8.0 | 0.00 | 0.07 | 0.00 | 81 | 1018.0 |
| 20260507130904 | 53 | 72 | 3.0 | 6.0 | 0.00 | 0.07 | 0.00 | 82 | 1017.8 |
| 20260507130404 | 53 | 79 | 3.0 | 8.0 | 0.00 | 0.07 | 0.00 | 83 | 1017.8 |
| 20260507125905 | 52 | 82 | 2.0 | 8.0 | 0.00 | 0.07 | 0.00 | 85 | 1017.7 |
| 20260507125405 | 51 | 50 | 2.0 | 5.0 | 0.00 | 0.07 | 0.00 | 86 | 1017.7 |
| 20260507124905 | 51 | 66 | 2.0 | 5.0 | 0.00 | 0.07 | 0.00 | 86 | 1017.6 |
| 20260507124405 | 51 | 53 | 3.0 | 7.0 | 0.00 | 0.07 | 0.00 | 88 | 1017.6 |
| 20260507123404 | 51 | 5 | 1.0 | 3.0 | 0.00 | 0.07 | 0.00 | 90 | 1017.4 |
| 20260507122905 | 50 | 5 | 1.0 | 3.0 | 0.00 | 0.07 | 0.00 | 90 | 1017.5 |
| 20260507122405 | 50 | 357 | 2.0 | 3.0 | 0.00 | 0.07 | 0.00 | 91 | 1017.4 |
| 20260507121905 | 50 | 355 | 2.0 | 3.0 | 0.00 | 0.07 | 0.00 | 92 | 1017.4 |
| 20260507121405 | 49 | 9 | 2.0 | 6.0 | 0.00 | 0.07 | 0.00 | 92 | 1017.4 |
| 20260507120905 | 49 | 47 | 1.0 | 3.0 | 0.00 | 0.07 | 0.00 | 93 | 1017.3 |
| 20260507120405 | 48 | 355 | 1.0 | 3.0 | 0.00 | 0.07 | 0.00 | 93 | 1017.3 |
| 20260507115405 | 47 | 342 | 2.0 | 3.0 | 0.00 | 0.07 | 0.00 | 93 | 1017.1 |
| 20260507114405 | 47 | 324 | 1.0 | 3.0 | 0.00 | 0.07 | 0.00 | 94 | 1017.0 |
| 20260507113905 | 46 | 323 | 1.0 | 3.0 | 0.00 | 0.07 | 0.00 | 93 | 1017.0 |
| 20260507113405 | 46 | 345 | 0.0 | 2.0 | 0.00 | 0.08 | 0.00 | 93 | 1016.9 |
| 20260507112905 | 46 | 345 | 0.0 | 1.0 | 0.00 | 0.08 | 0.00 | 93 | 1016.9 |
| 20260507112405 | 45 | 345 | 0.0 | 1.0 | 0.00 | 0.08 | 0.00 | 93 | 1016.8 |
| 20260507110904 | 45 | 342 | 0.0 | 0.0 | 0.00 | 0.09 | 0.00 | 93 | 1016.8 |
| 20260507110405 | 45 | 342 | 0.0 | 1.0 | 0.00 | 0.11 | 0.00 | 92 | 1016.7 |
| 20260507105905 | 46 | 342 | 0.0 | 1.0 | 0.00 | 0.13 | 0.00 | 93 | 1016.8 |
| 20260507105404 | 46 | 343 | 0.0 | 0.0 | 0.00 | 0.15 | 0.00 | 92 | 1016.7 |
| 20260507104905 | 46 | 343 | 0.0 | 1.0 | 0.00 | 0.17 | 0.00 | 92 | 1016.8 |
| 20260507104404 | 46 | 343 | 1.0 | 2.0 | 0.00 | 0.19 | 0.00 | 93 | 1016.8 |
| 20260507103405 | 47 | 344 | 1.0 | 2.0 | 0.00 | 0.20 | 0.00 | 92 | 1016.7 |
| 20260507102904 | 47 | 344 | 1.0 | 2.0 | 0.00 | 0.20 | 0.00 | 93 | 1016.7 |
| 20260507101905 | 47 | 346 | 2.0 | 3.0 | 0.00 | 0.21 | 0.00 | 93 | 1016.6 |
| 20260507101405 | 47 | 345 | 2.0 | 3.0 | 0.00 | 0.21 | 0.00 | 93 | 1016.7 |
| 20260507100905 | 47 | 348 | 2.0 | 3.0 | 0.00 | 0.21 | 0.00 | 92 | 1016.6 |
| 20260507100405 | 47 | 349 | 1.0 | 3.0 | 0.00 | 0.21 | 0.00 | 92 | 1016.6 |
| 20260507095905 | 47 | 349 | 1.0 | 2.0 | 0.00 | 0.21 | 0.00 | 92 | 1016.6 |
| 20260507095405 | 47 | 349 | 1.0 | 3.0 | 0.00 | 0.21 | 0.00 | 92 | 1016.5 |
| 20260507094905 | 47 | 350 | 1.0 | 2.0 | 0.00 | 0.21 | 0.00 | 92 | 1016.6 |
| 20260507094405 | 47 | 350 | 0.0 | 0.0 | 0.00 | 0.21 | 0.00 | 92 | 1016.4 |
| 20260507093905 | 47 | 350 | 0.0 | 1.0 | 0.00 | 0.21 | 0.00 | 92 | 1016.3 |
| 20260507093405 | 47 | 350 | 0.0 | 1.0 | 0.00 | 0.21 | 0.00 | 92 | 1016.4 |
| 20260507092905 | 48 | 350 | 0.0 | 2.0 | 0.00 | 0.21 | 0.00 | 92 | 1016.3 |
| 20260507092405 | 48 | 350 | 0.0 | 1.0 | 0.00 | 0.21 | 0.00 | 92 | 1016.4 |
| 20260507090905 | 48 | 350 | 1.0 | 3.0 | 0.00 | 0.21 | 0.00 | 92 | 1016.1 |
| 20260507085904 | 48 | 350 | 1.0 | 2.0 | 0.00 | 0.22 | 0.00 | 92 | 1016.2 |
| 20260507084904 | 48 | 350 | 1.0 | 3.0 | 0.00 | 0.25 | 0.00 | 92 | 1016.1 |
| 20260507084404 | 48 | 350 | 1.0 | 2.0 | 0.00 | 0.27 | 0.00 | 92 | 1016.3 |
| 20260507083904 | 48 | 350 | 0.0 | 1.0 | 0.00 | 0.28 | 0.00 | 92 | 1016.2 |
| 20260507082904 | 49 | 350 | 1.0 | 2.0 | 0.00 | 0.30 | 0.00 | 92 | 1016.4 |
| 20260507082404 | 49 | 350 | 1.0 | 3.0 | 0.00 | 0.30 | 0.00 | 91 | 1016.5 |
| 20260507081904 | 49 | 350 | 1.0 | 2.0 | 0.00 | 0.30 | 0.00 | 91 | 1016.3 |
| 20260507081404 | 49 | 350 | 1.0 | 1.0 | 0.00 | 0.30 | 0.00 | 91 | 1016.3 |
| 20260507080904 | 49 | 350 | 1.0 | 2.0 | 0.00 | 0.30 | 0.00 | 91 | 1016.3 |
| 20260507080404 | 49 | 350 | 1.0 | 2.0 | 0.00 | 0.30 | 0.00 | 91 | 1016.1 |
| 20260507075904 | 50 | 350 | 1.0 | 2.0 | 0.00 | 0.30 | 0.00 | 91 | 1016.2 |
| 20260507075404 | 50 | 350 | 1.0 | 3.0 | 0.00 | 0.30 | 0.00 | 91 | 1016.2 |
| 20260507074404 | 50 | 350 | 1.0 | 3.0 | 0.00 | 0.30 | 0.00 | 91 | 1016.2 |
| 20260507073904 | 50 | 350 | 1.0 | 3.0 | 0.00 | 0.30 | 0.00 | 91 | 1016.3 |
| 20260507073404 | 50 | 350 | 2.0 | 3.0 | 0.00 | 0.30 | 0.00 | 91 | 1016.3 |
| 20260507072404 | 51 | 348 | 1.0 | 3.0 | 0.00 | 0.31 | 0.00 | 91 | 1016.4 |
| 20260507071904 | 51 | 348 | 1.0 | 3.0 | 0.00 | 0.31 | 0.00 | 91 | 1016.5 |
| 20260507071404 | 51 | 348 | 1.0 | 3.0 | 0.00 | 0.31 | 0.00 | 91 | 1016.4 |
| 20260507070904 | 51 | 350 | 2.0 | 3.0 | 0.00 | 0.31 | 0.00 | 91 | 1016.4 |
| 20260507070404 | 51 | 351 | 1.0 | 2.0 | 0.00 | 0.32 | 0.00 | 91 | 1016.4 |
| 20260507065404 | 51 | 352 | 2.0 | 3.0 | 0.00 | 0.38 | 0.00 | 92 | 1016.3 |
| 20260507064904 | 51 | 0 | 1.0 | 3.0 | 0.00 | 0.40 | 0.00 | 92 | 1016.1 |
| 20260507064404 | 51 | 0 | 3.0 | 5.0 | 0.00 | 0.42 | 0.00 | 92 | 1015.8 |
| 20260507062904 | 51 | 40 | 1.0 | 3.0 | 0.00 | 0.51 | 0.00 | 92 | 1016.0 |
| 20260507061404 | 51 | 351 | 1.0 | 3.0 | 0.00 | 0.53 | 0.00 | 92 | 1016.4 |
| 20260507060904 | 51 | 351 | 2.0 | 3.0 | 0.00 | 0.53 | 0.00 | 92 | 1016.3 |
| 20260507055904 | 51 | 355 | 2.0 | 3.0 | 0.00 | 0.53 | 0.00 | 92 | 1016.2 |
| 20260507055404 | 51 | 355 | 3.0 | 3.0 | 0.00 | 0.53 | 0.00 | 92 | 1016.4 |
| 20260507054404 | 51 | 5 | 2.0 | 3.0 | 0.00 | 0.53 | 0.00 | 92 | 1016.2 |
| 20260507053904 | 51 | 5 | 1.0 | 3.0 | 0.00 | 0.53 | 0.00 | 92 | 1016.1 |
| 20260507053404 | 51 | 5 | 1.0 | 3.0 | 0.00 | 0.53 | 0.00 | 92 | 1016.3 |
| 20260507052904 | 51 | 5 | 1.0 | 3.0 | 0.00 | 0.53 | 0.00 | 92 | 1016.2 |
| 20260507052404 | 51 | 5 | 2.0 | 3.0 | 0.00 | 0.53 | 0.00 | 92 | 1016.0 |
| 20260507051905 | 51 | 5 | 1.0 | 2.0 | 0.00 | 0.53 | 0.00 | 92 | 1016.4 |
| 20260507051404 | 51 | 5 | 0.0 | 2.0 | 0.00 | 0.53 | 0.00 | 92 | 1016.4 |
| 20260507050905 | 51 | 5 | 2.0 | 3.0 | 0.00 | 0.53 | 0.00 | 92 | 1016.4 |
| 20260507050404 | 51 | 5 | 1.0 | 3.0 | 0.00 | 0.53 | 0.00 | 92 | 1016.4 |
| 20260507045904 | 51 | 8 | 2.0 | 3.0 | 0.00 | 0.53 | 0.53 | 92 | 1016.3 |
| 20260507044904 | 51 | 27 | 1.0 | 2.0 | 0.00 | 0.53 | 0.53 | 92 | 1015.9 |
| 20260507044404 | 51 | 27 | 0.0 | 0.0 | 0.00 | 0.53 | 0.53 | 92 | 1016.2 |